Find Starlink 30940

NORAD ID: 58409 Int'l Des: 2023-180 Owner: SPXS Country: US Constellation: starlink operational
LEOCIRCULAR

Live-Position

3D-Globus wird geladen...

Über Starlink 30940

Beschreibung wird geladen...

Nächste Überflüge

Passes for default location (London). Set your location on the main map for personalized predictions.

Höhenverlauf

Loading altitude history...

Zweizeiliger Elementsatz

1 58409U 23180H 26130.10117624 -.00001223 00000-0 -34957-4 0 9996
2 58409 43.0001 280.6446 0001151 281.8781 78.1941 15.27563393138724
Epoch: 10. Mai 2026 • Age: 9 hours

Aktueller Status

Höhe 490.4 km
Geschwindigkeit 7.62 km/s
Subsatellitenpunkt -29.27°S, 98.15°E
Startdatum 22. Nov. 2023
Alter 2.4 years
Typ internet

Technische Details

Klassifizierung Payload
Masse 730.00 kg
Trockenmasse 700.00 kg
Gesamtmasse 730.00 kg
Länge 0.30 m
Durchmesser 4.10 m
Spannweite 29.00 m
Form Box + pan
Hersteller SPXS
Bus-Typ Starlink V2M
Phasenstatus In Orbit
Besitzer/Staat SPXS/US

Most Searched